Retour au catalogue

THOR BURNER 2 R/B

ActifSSO
NORAD 2741·ROCKET BODY·🇺🇸 United States

Lancé Feb 8, 1967 depuis Vandenberg Space Force Base

Loading…

Prochains Passages (prochaines 24 heures)

TLE

FraisSource: Space-Track

Époque: Sep 14, 2026, 14:26 UTC

1 02741U 67010B   26257.60145842  .00000123  00000-0  65985-4 0  9993
2 02741  98.9842 214.1451 0053035  26.8288 333.5619 14.29276460 98046

Suivez THOR BURNER 2 R/B en temps réel avec AllMySat

Download on the App Store